This is the latest recevied weather packets stored in our database for station/object DO7ZT-13. If no packets are shown the sender has not sent any weather packets the latest 10 day(s).
| Time | Temp. | Humidity | Pressure | Rain* | Wind** | Luminosity | Snow |
|---|---|---|---|---|---|---|---|
| 1777068017 | 7.22° C | 84% | 1017 hPa | 0 mm | 0 m/s | - | - |
| 1777067704 | 7.22° C | 85% | 1017 hPa | 0 mm | 0 m/s | - | - |
| 1777067416 | 6.11° C | 85% | 1017 hPa | 0 mm | 0.45 m/s, 190° | - | - |
| 1777067104 | 6.11° C | 85% | 1017 hPa | 0 mm | 0 m/s | - | - |
| 1777066816 | 6.11° C | 88% | 1017 hPa | 0 mm | 0 m/s | - | - |
| 1777066504 | 6.11° C | 88% | 1017 hPa | 0 mm | 0.45 m/s, 210° | - | - |
| 1777066217 | 6.11° C | 87% | 1017 hPa | 0 mm | 0 m/s | - | - |
| 1777065904 | 6.11° C | 86% | 1017 hPa | 0 mm | 0.45 m/s, 192° | - | - |
| 1777065629 | 6.11° C | 85% | 1017 hPa | 0 mm | 0.45 m/s, 201° | - | - |
| 1777065317 | 5° C | 86% | 1017.1 hPa | 0 mm | 0 m/s | - | - |
| 1777065004 | 5° C | 89% | 1017.1 hPa | 0 mm | 0.89 m/s, 150° | - | - |
| 1777064719 | 5° C | 88% | 1017.1 hPa | 0 mm | 0.45 m/s, 192° | - | - |
| 1777064405 | 5° C | 87% | 1017.2 hPa | 0 mm | 0.45 m/s, 132° | - | - |
| 1777064117 | 5° C | 87% | 1017.2 hPa | 0 mm | 0.45 m/s, 132° | - | - |
| 1777063804 | 5° C | 87% | 1017.2 hPa | 0 mm | 0.89 m/s, 126° | - | - |
| 1777063516 | 5° C | 87% | 1017.2 hPa | 0 mm | 0.45 m/s, 132° | - | - |
| 1777063204 | 5° C | 86% | 1017.2 hPa | 0 mm | 0.45 m/s, 120° | - | - |
| 1777062916 | 5° C | 86% | 1017.2 hPa | 0 mm | 0.89 m/s, 126° | - | - |
| 1777062604 | 5° C | 86% | 1017.2 hPa | 0 mm | 0.89 m/s, 132° | - | - |
| 1777062317 | 5° C | 85% | 1017.2 hPa | 0 mm | 0.45 m/s, 132° | - | - |
| 1777062004 | 5° C | 85% | 1017.2 hPa | 0 mm | 0.45 m/s, 132° | - | - |
| 1777061717 | 6.11° C | 84% | 1017.2 hPa | 0 mm | 0.45 m/s, 126° | - | - |
| 1777061404 | 6.11° C | 83% | 1017.2 hPa | 0 mm | 0.89 m/s, 138° | - | - |
| 1777061116 | 6.11° C | 84% | 1017.2 hPa | 0 mm | 0.45 m/s, 132° | - | - |
| 1777060804 | 6.11° C | 84% | 1017.3 hPa | 0 mm | 0.45 m/s, 156° | - | - |
* Rain latest hour (hover to see other rain measurements)
** Current wind speed in m/s (hover to see current wind gust speed)